SCP
0 0 0 0 0 0 0 0 0 0 0 0 0 0 0 0 0 0 0 0 0 0 0 1 1 1 1 1 2 2 2 1 1 1 0 0 0 0 0 0 0 0 0
-0 -0 -0 -0 -0 0 0 0 0 0 0 0 0 0 0 0 0 0 0 0 0 0 0 1 1 1 1 2 2 2 2 2 1 1 0 0 0 0 0 0 0 0 0
-0 -0 -0 -0 -0 -0 -0 0 0 0 0 0 0 0 0 0 0 0 0 0 0 0 0 0 1 1 1 2 3 3 3 2 1 1 1 0 0 0 0 0 0 0 0
-0 -0 -0 -0 -0 -0 -0 -0 -0 0 0 0 0 0 0 0 0 0 0 0 0 0 0 0 0 0 1 2 2 3 3 2 2 1 1 0 0 0 0 0 0 0 0
-0 -0 -0 -0 -0 -0 -0 -0 -0 -0 -0 0 0 0 0 0 0 0 0 0 0 0 0 0 0 0 1 1 2 3 3 3 2 1 1 0 0 0 0 0 0 0 0
0 0 -0 -0 -0 -0 -0 -0 -0 -0 0 0 0 0 0 0 0 0 0 0 0 0 0 0 0 0 0 1 1 2 3 3 2 1 1 0 0 0 0 0 0 0 0
0 0 0 0 -0 -0 -0 -0 -0 -0 -0 0 0 0 0 0 0 0 0 0 0 0 0 0 0 0 0 0 1 1 1 3 2 2 1 1 0 0 0 0 0 0 0
0 0 0 0 0 0 -0 -0 -0 -0 0 0 0 0 0 0 0 0 0 0 0 0 0 0 0 0 0 0 0 0 1 2 2 1 1 0 0 0 0 0 0 0 0
0 0 0 0 0 0 0 0 0 0 0 0 0 0 0 0 0 0 0 0 0 0 0 0 0 0 0 0 0 0 0 0 0 1 1 0 0 0 0 0 0 0 0
0 0 0 0 0 0 0 0 0 0 0 0 0 0 0 0 0 -0 0 0 0 0 0 0 0 0 0 0 0 0 0 0 0 0 0 0 0 0 0 0 0 0 0
0 0 0 0 0 0 0 0 0 0 0 0 0 0 0 0 0 0 -0 -0 0 0 0 0 0 0 0 0 0 0 0 0 0 0 0 0 0 0 0 0 0 0 0
0 0 0 0 0 0 0 0 0 0 0 0 0 0 0 0 0 0 0 -0 -0 -0 -0 0 0 0 0 0 0 0 0 0 0 0 0 0 0 0 0 0 0 0 0
0 0 0 0 0 0 0 0 0 0 0 0 0 0 0 0 0 0 0 -0 -0 -0 -0 0 0 0 0 0 0 0 0 0 0 0 0 0 0 0 0 0 0 0 0
0 0 0 0 0 0 0 0 0 0 0 0 0 0 0 0 0 0 0 -0 -0 -0 -0 0 0 0 0 0 0 0 0 0 0 0 0 0 0 0 0 0 0 0 0
0 0 0 0 0 0 0 0 0 0 0 0 0 0 0 0 0 0 0 -0 -0 -0 -0 -0 0 0 0 0 0 0 0 0 0 0 0 0 0 0 0 0 0 0 0
0 0 0 0 0 0 0 0 0 0 0 0 0 0 0 0 0 0 0 -0 -0 -0 -0 -0 -0 0 0 0 0 0 0 0 0 0 0 0 0 0 0 0 0 0 0
0 0 0 0 0 0 0 0 0 0 0 0 0 0 0 -0 0 0 0 -0 -0 -0 -0 -0 -0 -0 0 0 0 0 0 0 0 0 0 0 0 0 0 0 0 0 0
0 0 0 0 0 0 0 0 0 0 0 0 0 0 0 0 0 0 0 -0 -0 0 -0 -0 -0 -0 0 0 0 0 0 0 0 0 0 0 0 0 0 0 0 0 0
0 0 0 0 0 0 0 0 0 0 0 0 0 0 0 0 0 0 0 -0 -0 -0 -0 -0 -0 -0 0 0 0 0 0 0 0 0 0 0 0 0 0 0 0 0 0
0 0 0 0 0 0 0 0 0 0 0 0 0 0 0 0 0 0 0 0 -0 -0 -0 -0 -0 -0 0 0 0 0 0 0 0 0 0 0 0 0 0 0 0 0 0
0 0 0 0 0 0 0 0 0 0 0 0 0 0 0 0 0 0 0 0 -0 -0 -0 -0 -0 -0 0 0 0 0 0 0 0 0 0 0 0 0 0 0 0 0 0
0 0 0 0 0 0 0 0 0 0 0 0 0 0 0 0 0 0 0 0 0 -0 -0 -0 -0 -0 0 0 0 0 0 0 0 0 0 0 0 0 0 0 0 0 0
0 0 0 0 0 0 0 0 0 0 0 0 0 0 0 0 0 -0 -0 0 0 0 -0 0 -0 -0 0 0 0 0 0 0 0 0 0 0 0 0 0 0 0 0 0
0 0 0 0 0 0 0 0 0 0 0 0 0 0 0 0 -0 0 -0 -0 -0 -0 -0 -0 -0 0 0 0 0 0 0 0 0 0 0 0 0 0 0 0 0 0 0
0 0 0 0 0 0 0 0 0 0 0 0 0 0 0 0 0 0 0 -0 -0 -0 -0 0 0 0 0 0 0 0 0 0 0 0 0 0 0 0 0 0 0 0 0
0 0 0 0 0 0 0 0 0 0 0 -0 0 0 0 0 0 0 -0 -0 -0 -0 -0 0 -0 0 0 0 0 0 0 0 0 0 0 0 0 0 0 0 0 0 0
Wind_Speed_500mb
50 53 56 55 57 59 61 66 70 71 72 76 76 75 71 74 79 89 92 92 87 86 82 81 87 92 93 90 86 83 84 83 85 83 76 73 72 67 62 57 54 48 45
58 60 60 60 59 60 60 66 71 73 78 77 81 92 84 74 79 83 91 97 98 94 91 86 89 98 100 96 94 91 91 90 91 89 83 79 78 73 67 63 58 49 51
60 63 67 70 68 70 71 65 64 71 78 81 83 84 98 98 80 73 84 93 103 102 98 93 95 101 105 101 100 95 94 96 92 95 93 87 84 80 74 67 59 56 59
61 63 66 72 77 77 79 81 81 75 70 79 90 93 90 97 103 88 76 93 97 105 104 100 96 104 110 112 108 103 98 100 104 104 102 96 93 88 80 70 62 63 63
60 65 68 72 79 84 85 85 85 82 86 81 81 91 102 97 102 110 94 83 100 101 107 108 103 105 115 116 116 112 107 102 105 107 112 108 102 95 85 75 68 65 66
62 65 68 70 77 85 88 88 88 83 81 84 86 96 99 109 104 111 111 96 98 107 103 108 109 107 116 122 118 117 118 109 114 119 121 116 110 101 92 82 70 68 69
62 65 70 75 77 82 85 87 87 85 81 69 84 96 105 112 117 112 122 108 100 105 114 109 106 112 114 126 127 121 133 120 122 129 133 123 121 110 98 87 74 74 72
64 68 71 76 80 86 87 86 82 85 87 69 62 75 80 90 95 93 101 120 116 106 107 109 107 111 115 121 134 128 124 134 129 137 142 139 132 117 103 90 80 81 78
67 72 72 73 77 83 87 88 87 83 89 85 72 59 40 42 52 54 62 80 101 107 112 117 111 110 117 117 126 129 127 112 144 152 153 150 144 126 109 94 86 87 82
67 70 77 77 78 82 89 94 90 84 77 91 78 75 80 89 72 69 71 59 60 82 96 123 110 114 114 119 128 128 125 140 120 169 171 153 146 128 111 100 93 90 84
72 71 76 76 80 84 89 91 90 82 74 73 70 70 69 86 88 81 83 81 85 68 68 62 114 107 108 125 129 133 128 130 134 116 165 160 143 129 108 101 98 92 84
78 75 77 79 81 86 90 94 91 83 85 90 87 90 87 72 70 73 77 76 78 100 85 67 70 106 109 116 131 131 128 119 90 96 158 156 130 114 104 100 100 93 92
83 81 81 83 84 88 91 95 95 96 91 83 72 74 78 101 77 82 76 77 74 80 78 104 67 92 109 113 115 124 124 121 111 126 146 142 126 106 99 107 102 103 95
90 90 89 86 86 90 93 94 97 95 83 79 79 79 68 96 94 84 79 62 67 73 86 105 78 58 100 106 116 119 106 115 110 143 169 167 129 112 115 113 110 104 100
89 91 89 91 92 94 96 95 97 97 88 83 84 91 94 89 72 84 75 71 67 65 67 97 100 56 103 92 92 85 97 117 145 146 112 116 115 116 120 110 112 106 102
89 90 90 91 94 97 99 95 93 91 88 79 67 71 79 95 79 73 81 74 71 75 80 75 87 118 61 97 104 94 124 143 167 142 129 124 115 119 116 111 109 104 101
86 89 90 92 94 98 99 94 88 90 86 77 84 82 90 99 97 63 76 68 65 64 75 86 92 125 47 123 101 103 88 90 92 100 117 117 115 120 115 115 107 104 100
85 86 90 95 100 100 97 91 90 85 80 82 78 77 86 81 97 63 74 71 68 73 75 83 78 105 112 103 128 127 116 102 108 118 123 111 119 118 114 111 109 107 104
89 88 90 92 97 100 94 88 82 82 77 81 84 87 87 81 96 78 63 66 69 64 80 74 92 110 102 113 110 122 127 133 142 125 118 113 118 120 118 114 113 110 106
89 91 91 93 93 95 84 75 69 74 78 80 80 77 82 82 94 83 53 68 69 69 76 69 88 102 120 89 128 131 133 133 134 120 117 115 119 121 119 119 114 110 102
86 89 93 92 91 86 80 65 62 66 70 77 76 73 76 71 90 93 79 48 68 65 76 80 90 87 98 113 126 123 127 132 142 143 127 118 117 122 120 115 114 107 96
83 88 91 93 90 83 67 66 66 73 74 77 81 82 77 75 76 98 85 74 64 76 74 79 91 103 107 129 119 131 129 118 104 123 140 125 121 127 126 121 116 107 96
86 89 89 88 85 79 67 65 63 68 75 80 79 81 80 77 69 76 92 91 78 80 76 77 86 112 79 130 124 132 135 142 130 143 143 115 136 134 131 123 112 104 109
86 87 88 85 81 74 65 65 64 65 69 71 82 82 81 79 77 72 71 87 95 89 88 84 91 104 90 132 140 153 155 144 119 149 144 116 140 118 132 125 111 109 104
88 89 85 82 79 69 60 63 61 62 73 75 88 78 74 78 79 69 66 78 80 93 90 87 90 106 105 137 156 136 132 133 116 133 130 117 129 115 126 127 117 104 104
87 89 91 88 86 80 72 64 60 52 67 69 63 75 70 70 72 60 66 75 83 90 88 87 77 84 111 144 149 163 159 148 135 114 135 114 125 121 98 126 120 115 108
Wind_Direction_500mb
333 332 328 325 321 318 315 309 303 295 285 272 264 266 269 267 265 261 260 259 255 255 255 248 243 234 229 231 230 228 224 221 219 217 215 213 211 211 210 207 205 208 197
336 335 334 332 327 322 317 313 311 305 296 287 278 265 267 270 266 268 261 259 257 253 252 249 242 238 232 231 230 227 225 223 221 218 216 213 211 211 209 208 207 204 190
335 335 333 333 331 328 323 316 309 305 302 297 288 279 265 264 267 267 268 259 258 255 252 248 243 239 235 232 231 229 226 224 224 222 216 212 211 209 207 206 207 202 189
331 331 331 331 330 328 326 325 321 313 302 297 293 287 279 266 259 265 262 263 260 257 254 249 243 239 237 232 231 231 228 226 225 221 215 212 210 206 206 206 208 197 186
328 329 331 330 327 326 325 323 319 315 309 300 291 285 283 276 264 256 261 259 259 259 256 254 245 239 236 234 230 230 228 228 225 224 216 211 208 206 204 206 211 195 186
326 325 324 324 325 323 322 320 317 313 307 300 293 287 280 277 272 261 254 254 253 254 256 254 252 241 235 235 232 229 227 228 227 226 220 208 207 204 203 204 210 197 185
324 324 322 323 324 320 319 318 318 314 307 298 286 285 281 278 273 267 256 250 252 250 254 255 251 248 237 234 235 234 223 225 224 225 222 209 205 202 203 204 206 192 185
324 323 324 323 323 322 323 322 319 312 302 295 285 284 287 287 272 273 261 252 249 250 255 251 249 246 241 235 233 233 235 220 219 215 212 209 204 200 202 203 203 190 185
324 323 322 321 322 323 321 320 314 307 299 290 275 265 273 264 287 281 262 256 248 251 251 255 244 245 243 237 233 234 233 231 216 212 208 210 204 200 200 202 201 186 185
322 321 321 321 321 321 319 316 312 303 293 286 280 252 262 262 269 287 279 259 253 234 240 246 244 243 239 237 236 237 233 234 234 209 200 207 198 200 196 200 197 183 183
320 321 319 318 317 317 316 312 307 298 289 279 270 273 261 259 256 259 272 276 267 252 235 235 236 237 238 238 237 237 238 234 236 225 193 196 194 198 195 196 186 181 183
319 320 317 315 315 314 313 310 304 294 286 279 267 255 256 268 253 252 257 268 273 263 245 248 273 237 238 237 236 237 237 231 235 212 185 188 188 192 193 192 180 180 181
318 318 316 314 313 313 311 307 301 294 290 280 270 256 257 256 270 246 257 266 274 276 273 255 256 243 234 234 238 238 237 230 224 220 218 204 191 190 198 184 181 181 181
318 318 316 314 312 309 307 304 299 294 287 270 261 255 261 252 252 254 246 260 269 269 277 261 247 278 229 238 235 236 236 228 223 198 191 186 181 192 186 181 180 182 180
317 315 314 311 310 308 306 303 297 292 287 279 270 260 247 248 258 247 242 252 256 258 265 260 259 279 218 218 214 222 220 206 192 180 173 171 177 186 184 181 183 180 182
316 315 313 310 309 306 303 300 293 288 284 281 267 262 254 251 254 257 246 251 249 245 255 257 250 250 233 215 218 203 209 192 189 182 174 173 174 182 183 183 183 182 182
316 315 313 310 307 304 301 298 287 284 280 274 275 272 258 248 252 273 242 247 251 240 247 264 258 249 283 203 205 201 171 175 177 174 173 173 177 184 184 185 184 184 182
319 317 314 312 308 302 299 295 287 281 274 275 275 271 261 256 251 259 256 250 252 244 251 254 259 256 253 213 199 200 198 200 188 188 180 179 181 185 187 185 184 186 185
321 318 314 311 308 304 300 294 287 283 276 274 274 271 265 254 247 250 259 250 252 252 251 255 252 255 250 205 196 188 190 190 180 177 178 186 188 188 188 188 188 189 187
321 319 316 313 310 305 298 291 282 277 274 275 276 272 265 256 244 244 255 248 259 255 251 246 246 257 247 211 195 179 176 176 171 172 176 186 187 189 189 191 190 190 192
322 320 319 317 313 310 305 295 288 285 285 289 288 283 265 257 248 241 246 255 253 258 252 259 254 251 251 203 186 172 172 169 173 172 178 184 188 191 193 194 195 195 198
325 324 325 324 321 314 298 290 285 283 282 277 277 279 279 262 258 241 243 246 254 259 257 259 256 249 259 177 177 177 169 161 158 173 175 184 189 194 196 196 198 198 200
330 333 331 329 327 317 301 296 290 285 283 282 279 274 274 270 252 255 244 244 251 259 263 265 263 246 216 179 173 167 167 168 173 174 177 186 192 197 198 198 198 200 194
337 337 337 339 330 319 305 300 296 292 289 284 282 277 267 265 257 249 253 247 250 256 256 264 263 256 255 183 189 184 177 173 168 174 182 184 191 191 198 199 195 195 196
339 340 342 342 338 331 321 308 305 302 297 300 286 286 271 261 258 251 251 250 253 259 259 269 259 266 237 190 187 172 166 163 168 177 184 183 185 189 197 197 199 203 199
342 342 343 348 344 336 329 313 308 305 306 297 298 291 285 265 252 248 247 252 261 257 265 276 282 232 204 189 182 179 175 171 172 177 187 183 184 183 191 199 201 201 199
Wind_Speed_850mb
50 53 56 55 57 59 61 66 70 71 72 76 76 75 71 74 79 89 92 92 87 86 82 81 87 92 93 90 86 83 84 83 85 83 76 73 72 67 62 57 54 48 45
58 60 60 60 59 60 60 66 71 73 78 77 81 92 84 74 79 83 91 97 98 94 91 86 89 98 100 96 94 91 91 90 91 89 83 79 78 73 67 63 58 49 51
60 63 67 70 68 70 71 65 64 71 78 81 83 84 98 98 80 73 84 93 103 102 98 93 95 101 105 101 100 95 94 96 92 95 93 87 84 80 74 67 59 56 59
61 63 66 72 77 77 79 81 81 75 70 79 90 93 90 97 103 88 76 93 97 105 104 100 96 104 110 112 108 103 98 100 104 104 102 96 93 88 80 70 62 63 63
60 65 68 72 79 84 85 85 85 82 86 81 81 91 102 97 102 110 94 83 100 101 107 108 103 105 115 116 116 112 107 102 105 107 112 108 102 95 85 75 68 65 66
62 65 68 70 77 85 88 88 88 83 81 84 86 96 99 109 104 111 111 96 98 107 103 108 109 107 116 122 118 117 118 109 114 119 121 116 110 101 92 82 70 68 69
62 65 70 75 77 82 85 87 87 85 81 69 84 96 105 112 117 112 122 108 100 105 114 109 106 112 114 126 127 121 133 120 122 129 133 123 121 110 98 87 74 74 72
64 68 71 76 80 86 87 86 82 85 87 69 62 75 80 90 95 93 101 120 116 106 107 109 107 111 115 121 134 128 124 134 129 137 142 139 132 117 103 90 80 81 78
67 72 72 73 77 83 87 88 87 83 89 85 72 59 40 42 52 54 62 80 101 107 112 117 111 110 117 117 126 129 127 112 144 152 153 150 144 126 109 94 86 87 82
67 70 77 77 78 82 89 94 90 84 77 91 78 75 80 89 72 69 71 59 60 82 96 123 110 114 114 119 128 128 125 140 120 169 171 153 146 128 111 100 93 90 84
72 71 76 76 80 84 89 91 90 82 74 73 70 70 69 86 88 81 83 81 85 68 68 62 114 107 108 125 129 133 128 130 134 116 165 160 143 129 108 101 98 92 84
78 75 77 79 81 86 90 94 91 83 85 90 87 90 87 72 70 73 77 76 78 100 85 67 70 106 109 116 131 131 128 119 90 96 158 156 130 114 104 100 100 93 92
83 81 81 83 84 88 91 95 95 96 91 83 72 74 78 101 77 82 76 77 74 80 78 104 67 92 109 113 115 124 124 121 111 126 146 142 126 106 99 107 102 103 95
90 90 89 86 86 90 93 94 97 95 83 79 79 79 68 96 94 84 79 62 67 73 86 105 78 58 100 106 116 119 106 115 110 143 169 167 129 112 115 113 110 104 100
89 91 89 91 92 94 96 95 97 97 88 83 84 91 94 89 72 84 75 71 67 65 67 97 100 56 103 92 92 85 97 117 145 146 112 116 115 116 120 110 112 106 102
89 90 90 91 94 97 99 95 93 91 88 79 67 71 79 95 79 73 81 74 71 75 80 75 87 118 61 97 104 94 124 143 167 142 129 124 115 119 116 111 109 104 101
86 89 90 92 94 98 99 94 88 90 86 77 84 82 90 99 97 63 76 68 65 64 75 86 92 125 47 123 101 103 88 90 92 100 117 117 115 120 115 115 107 104 100
85 86 90 95 100 100 97 91 90 85 80 82 78 77 86 81 97 63 74 71 68 73 75 83 78 105 112 103 128 127 116 102 108 118 123 111 119 118 114 111 109 107 104
89 88 90 92 97 100 94 88 82 82 77 81 84 87 87 81 96 78 63 66 69 64 80 74 92 110 102 113 110 122 127 133 142 125 118 113 118 120 118 114 113 110 106
89 91 91 93 93 95 84 75 69 74 78 80 80 77 82 82 94 83 53 68 69 69 76 69 88 102 120 89 128 131 133 133 134 120 117 115 119 121 119 119 114 110 102
86 89 93 92 91 86 80 65 62 66 70 77 76 73 76 71 90 93 79 48 68 65 76 80 90 87 98 113 126 123 127 132 142 143 127 118 117 122 120 115 114 107 96
83 88 91 93 90 83 67 66 66 73 74 77 81 82 77 75 76 98 85 74 64 76 74 79 91 103 107 129 119 131 129 118 104 123 140 125 121 127 126 121 116 107 96
86 89 89 88 85 79 67 65 63 68 75 80 79 81 80 77 69 76 92 91 78 80 76 77 86 112 79 130 124 132 135 142 130 143 143 115 136 134 131 123 112 104 109
86 87 88 85 81 74 65 65 64 65 69 71 82 82 81 79 77 72 71 87 95 89 88 84 91 104 90 132 140 153 155 144 119 149 144 116 140 118 132 125 111 109 104
88 89 85 82 79 69 60 63 61 62 73 75 88 78 74 78 79 69 66 78 80 93 90 87 90 106 105 137 156 136 132 133 116 133 130 117 129 115 126 127 117 104 104
87 89 91 88 86 80 72 64 60 52 67 69 63 75 70 70 72 60 66 75 83 90 88 87 77 84 111 144 149 163 159 148 135 114 135 114 125 121 98 126 120 115 108
Wind_Direction_850mb
333 332 328 325 321 318 315 309 303 295 285 272 264 266 269 267 265 261 260 259 255 255 255 248 243 234 229 231 230 228 224 221 219 217 215 213 211 211 210 207 205 208 197
336 335 334 332 327 322 317 313 311 305 296 287 278 265 267 270 266 268 261 259 257 253 252 249 242 238 232 231 230 227 225 223 221 218 216 213 211 211 209 208 207 204 190
335 335 333 333 331 328 323 316 309 305 302 297 288 279 265 264 267 267 268 259 258 255 252 248 243 239 235 232 231 229 226 224 224 222 216 212 211 209 207 206 207 202 189
331 331 331 331 330 328 326 325 321 313 302 297 293 287 279 266 259 265 262 263 260 257 254 249 243 239 237 232 231 231 228 226 225 221 215 212 210 206 206 206 208 197 186
328 329 331 330 327 326 325 323 319 315 309 300 291 285 283 276 264 256 261 259 259 259 256 254 245 239 236 234 230 230 228 228 225 224 216 211 208 206 204 206 211 195 186
326 325 324 324 325 323 322 320 317 313 307 300 293 287 280 277 272 261 254 254 253 254 256 254 252 241 235 235 232 229 227 228 227 226 220 208 207 204 203 204 210 197 185
324 324 322 323 324 320 319 318 318 314 307 298 286 285 281 278 273 267 256 250 252 250 254 255 251 248 237 234 235 234 223 225 224 225 222 209 205 202 203 204 206 192 185
324 323 324 323 323 322 323 322 319 312 302 295 285 284 287 287 272 273 261 252 249 250 255 251 249 246 241 235 233 233 235 220 219 215 212 209 204 200 202 203 203 190 185
324 323 322 321 322 323 321 320 314 307 299 290 275 265 273 264 287 281 262 256 248 251 251 255 244 245 243 237 233 234 233 231 216 212 208 210 204 200 200 202 201 186 185
322 321 321 321 321 321 319 316 312 303 293 286 280 252 262 262 269 287 279 259 253 234 240 246 244 243 239 237 236 237 233 234 234 209 200 207 198 200 196 200 197 183 183
320 321 319 318 317 317 316 312 307 298 289 279 270 273 261 259 256 259 272 276 267 252 235 235 236 237 238 238 237 237 238 234 236 225 193 196 194 198 195 196 186 181 183
319 320 317 315 315 314 313 310 304 294 286 279 267 255 256 268 253 252 257 268 273 263 245 248 273 237 238 237 236 237 237 231 235 212 185 188 188 192 193 192 180 180 181
318 318 316 314 313 313 311 307 301 294 290 280 270 256 257 256 270 246 257 266 274 276 273 255 256 243 234 234 238 238 237 230 224 220 218 204 191 190 198 184 181 181 181
318 318 316 314 312 309 307 304 299 294 287 270 261 255 261 252 252 254 246 260 269 269 277 261 247 278 229 238 235 236 236 228 223 198 191 186 181 192 186 181 180 182 180
317 315 314 311 310 308 306 303 297 292 287 279 270 260 247 248 258 247 242 252 256 258 265 260 259 279 218 218 214 222 220 206 192 180 173 171 177 186 184 181 183 180 182
316 315 313 310 309 306 303 300 293 288 284 281 267 262 254 251 254 257 246 251 249 245 255 257 250 250 233 215 218 203 209 192 189 182 174 173 174 182 183 183 183 182 182
316 315 313 310 307 304 301 298 287 284 280 274 275 272 258 248 252 273 242 247 251 240 247 264 258 249 283 203 205 201 171 175 177 174 173 173 177 184 184 185 184 184 182
319 317 314 312 308 302 299 295 287 281 274 275 275 271 261 256 251 259 256 250 252 244 251 254 259 256 253 213 199 200 198 200 188 188 180 179 181 185 187 185 184 186 185
321 318 314 311 308 304 300 294 287 283 276 274 274 271 265 254 247 250 259 250 252 252 251 255 252 255 250 205 196 188 190 190 180 177 178 186 188 188 188 188 188 189 187
321 319 316 313 310 305 298 291 282 277 274 275 276 272 265 256 244 244 255 248 259 255 251 246 246 257 247 211 195 179 176 176 171 172 176 186 187 189 189 191 190 190 192
322 320 319 317 313 310 305 295 288 285 285 289 288 283 265 257 248 241 246 255 253 258 252 259 254 251 251 203 186 172 172 169 173 172 178 184 188 191 193 194 195 195 198
325 324 325 324 321 314 298 290 285 283 282 277 277 279 279 262 258 241 243 246 254 259 257 259 256 249 259 177 177 177 169 161 158 173 175 184 189 194 196 196 198 198 200
330 333 331 329 327 317 301 296 290 285 283 282 279 274 274 270 252 255 244 244 251 259 263 265 263 246 216 179 173 167 167 168 173 174 177 186 192 197 198 198 198 200 194
337 337 337 339 330 319 305 300 296 292 289 284 282 277 267 265 257 249 253 247 250 256 256 264 263 256 255 183 189 184 177 173 168 174 182 184 191 191 198 199 195 195 196
339 340 342 342 338 331 321 308 305 302 297 300 286 286 271 261 258 251 251 250 253 259 259 269 259 266 237 190 187 172 166 163 168 177 184 183 185 189 197 197 199 203 199
342 342 343 348 344 336 329 313 308 305 306 297 298 291 285 265 252 248 247 252 261 257 265 276 282 232 204 189 182 179 175 171 172 177 187 183 184 183 191 199 201 201 199